Hyannis, MA

5:12 PM EST on December 08, 2016 (GMT -0500)
Barnstable Municipal-Boardman-Polando Field

Weather History for KHYA - December, 2013

Change the Weather History Date:

Thursday, December 19, 2013

  Actual Average Record
Temperature  
Mean Temperature 37 °F -  
Max Temperature 46 °F 41 °F 58 °F (1984)
Min Temperature 28 °F 22 °F 4 °F (1960)
Degree Days  
Heating Degree Days 28    
Moisture  
Dew Point 27 °F    
Average Humidity 64    
Maximum Humidity 75    
Minimum Humidity 53    
Precipitation  
Precipitation 0.00 in - - ()
Sea Level Pressure  
Sea Level Pressure 30.07 in    
Wind  
Wind Speed 11 mph (WSW)    
Max Wind Speed 23 mph    
Max Gust Speed 33 mph    
Visibility 10 miles    
Events      
Averages and records for this station are not official NWS values.
T = Trace of Precipitation, MM = Missing Value Source: NWS Daily Summary

Daily Weather History Graph

Daily Weather History Graph

Search for Another Location

Airport or City:

Trip Planner

Search our weather history database for the weather conditions in past years. The results will help you decide how hot, cold, wet, or windy it might be!

Date:

Astronomy

Dec. 19, 2013 Rise Set
Actual Time 7:03 AM EST 4:13 PM EST
Civil Twilight 6:32 AM EST 4:44 PM EST
Nautical Twilight 5:57 AM EST 5:19 PM EST
Astronomical Twilight 5:23 AM EST 5:53 PM EST
Moon 6:37 PM EST (12/19) 8:18 AM EST (12/19)
Length of Visible Light 10h 12m
Length of Day
9h 09m
Waning Gibbous, 95% of the Moon is Illuminated
Dec 19
Waning Gibbous
Dec 25
Last Quarter
Jan 1
New
Jan 7
First Quarter
Jan 15
Full

Hourly Weather History & Observations

Time (EST) Temp. Windchill Dew Point Humidity Pressure Visibility Wind Dir Wind Speed Gust Speed Precip Events Conditions
12:56 AM 30.9 °F 22.2 °F 21.0 °F 67% 30.09 in 10.0 mi WSW 10.4 mph - N/A   Clear
1:56 AM 30.9 °F 22.8 °F 21.0 °F 67% 30.11 in 10.0 mi West 9.2 mph - N/A   Clear
2:56 AM 30.0 °F 21.7 °F 21.0 °F 69% 30.13 in 10.0 mi West 9.2 mph - N/A   Clear
3:56 AM 28.9 °F 22.8 °F 21.9 °F 75% 30.11 in 10.0 mi West 5.8 mph - N/A   Clear
4:56 AM 30.0 °F 24.1 °F 21.9 °F 72% 30.11 in 10.0 mi WSW 5.8 mph - N/A   Mostly Cloudy
5:56 AM 30.0 °F 25.2 °F 23.0 °F 75% 30.12 in 10.0 mi West 4.6 mph - N/A   Overcast
6:56 AM 32.0 °F 24.8 °F 23.0 °F 69% 30.11 in 10.0 mi SW 8.1 mph - N/A   Overcast
7:56 AM 34.0 °F 27.2 °F 21.9 °F 61% 30.10 in 10.0 mi WSW 8.1 mph - N/A   Scattered Clouds
8:56 AM 37.9 °F 28.2 °F 25.0 °F 60% 30.09 in 10.0 mi SW 18.4 mph 28.8 mph N/A   Mostly Cloudy
9:56 AM 39.0 °F 29.6 °F 26.1 °F 60% 30.10 in 10.0 mi WSW 18.4 mph 31.1 mph N/A   Clear
10:56 AM 41.0 °F 31.9 °F 25.0 °F 53% 30.07 in 10.0 mi SW 19.6 mph 25.3 mph N/A   Clear
11:56 AM 44.1 °F 35.2 °F 30.9 °F 60% 30.03 in 10.0 mi SW 23.0 mph 33.4 mph N/A   Clear
12:56 PM 46.0 °F 39.0 °F 33.1 °F 61% 29.99 in 10.0 mi SW 17.3 mph 27.6 mph N/A   Clear
1:56 PM 46.9 °F - 34.0 °F 61% 29.98 in 10.0 mi SW 19.6 mph 32.2 mph N/A   Clear
2:56 PM 46.0 °F 38.5 °F 33.1 °F 61% 29.98 in 10.0 mi WSW 19.6 mph 27.6 mph N/A   Clear
3:56 PM 45.0 °F 37.4 °F 33.1 °F 63% 29.99 in 10.0 mi WSW 18.4 mph - N/A   Clear
4:56 PM 43.0 °F 36.8 °F 32.0 °F 65% 30.01 in 10.0 mi WSW 11.5 mph - N/A   Clear
5:56 PM 42.1 °F 36.6 °F 30.0 °F 62% 30.03 in 10.0 mi WSW 9.2 mph - N/A   Clear
6:56 PM 42.1 °F 36.1 °F 28.9 °F 60% 30.06 in 10.0 mi WSW 10.4 mph - N/A   Clear
7:56 PM 42.1 °F 37.1 °F 30.0 °F 62% 30.07 in 10.0 mi WSW 8.1 mph - N/A   Clear
8:56 PM 42.1 °F 36.1 °F 30.9 °F 65% 30.09 in 10.0 mi WSW 10.4 mph - N/A   Clear
9:56 PM 41.0 °F 37.1 °F 30.9 °F 67% 30.11 in 10.0 mi West 5.8 mph - N/A   Clear
10:56 PM 41.0 °F 38.0 °F 30.0 °F 65% 30.12 in 10.0 mi West 4.6 mph - N/A   Clear
11:56 PM 39.0 °F - 28.0 °F 65% 30.11 in 10.0 mi Calm Calm - N/A   Clear